Meteo orario Godzieszow

Oggi, 20 Aprile, Martedi

Tempo Temperatura Precipitazioni Vento Pressione Umidità
00:00 +6°C° 0 mm 1 m/s 740 mm Hg 95%
01:00 +6°C° 0 mm 1 m/s 740 mm Hg 95%
02:00 +6°C° 0 mm 1 m/s 740 mm Hg 95%
03:00 +6°C° 0 mm 1 m/s 740 mm Hg 95%
04:00 +6°C° 0 mm 1 m/s 740 mm Hg 95%
05:00 +7°C° 0 mm 1 m/s 740 mm Hg 93%
06:00 +8°C° 0 mm 1 m/s 740 mm Hg 91%
07:00 +8°C° 0 mm 1 m/s 740 mm Hg 90%
08:00 +10°C° 0.1 mm 1 m/s 740 mm Hg 83%
09:00 +12°C° 0.1 mm 1 m/s 740 mm Hg 77%
10:00 +13°C° 0.1 mm 1 m/s 740 mm Hg 70%
11:00 +14°C° 0.2 mm 1 m/s 740 mm Hg 64%
12:00 +15°C° 0.2 mm 1 m/s 739 mm Hg 58%
13:00 +16°C° 0.2 mm 1 m/s 739 mm Hg 52%
14:00 +16°C° 0.2 mm 1 m/s 739 mm Hg 54%
15:00 +15°C° 0.2 mm 1 m/s 739 mm Hg 55%
16:00 +15°C° 0.2 mm 2 m/s 738 mm Hg 57%
17:00 +14°C° 0.3 mm 2 m/s 738 mm Hg 65%
18:00 +12°C° 0.3 mm 1 m/s 738 mm Hg 73%
19:00 +11°C° 0.3 mm 1 m/s 738 mm Hg 81%
20:00 +10°C° 0.2 mm 1 m/s 738 mm Hg 83%
21:00 +10°C° 0.2 mm 1 m/s 738 mm Hg 85%
22:00 +9°C° 0.2 mm 2 m/s 738 mm Hg 88%
23:00 +8°C° 0 mm 2 m/s 738 mm Hg 89%

Domani, 21 Aprile, Mercoledi

Tempo Temperatura Precipitazioni Vento Pressione Umidità
00:00 +8°C° 0 mm 2 m/s 738 mm Hg 90%
01:00 +7°C° 0 mm 2 m/s 738 mm Hg 91%
02:00 +7°C° 0 mm 2 m/s 738 mm Hg 92%
03:00 +6°C° 0 mm 2 m/s 738 mm Hg 93%
04:00 +5°C° 0 mm 2 m/s 738 mm Hg 94%
05:00 +6°C° 0 mm 2 m/s 738 mm Hg 91%
06:00 +7°C° 0 mm 2 m/s 738 mm Hg 88%
07:00 +8°C° 0 mm 2 m/s 739 mm Hg 86%
08:00 +9°C° 0 mm 3 m/s 739 mm Hg 78%
09:00 +10°C° 0 mm 3 m/s 739 mm Hg 71%
10:00 +12°C° 0 mm 4 m/s 739 mm Hg 64%
11:00 +13°C° 0 mm 4 m/s 739 mm Hg 57%
12:00 +13°C° 0 mm 4 m/s 738 mm Hg 50%
13:00 +14°C° 0 mm 5 m/s 738 mm Hg 42%
14:00 +14°C° 0 mm 5 m/s 738 mm Hg 42%
15:00 +14°C° 0 mm 4 m/s 738 mm Hg 42%
16:00 +14°C° 0 mm 4 m/s 737 mm Hg 42%
17:00 +12°C° 0 mm 4 m/s 738 mm Hg 50%
18:00 +11°C° 0 mm 3 m/s 738 mm Hg 57%
19:00 +9°C° 0 mm 2 m/s 738 mm Hg 65%
20:00 +8°C° 0 mm 2 m/s 738 mm Hg 73%
21:00 +7°C° 0 mm 3 m/s 738 mm Hg 81%
22:00 +7°C° 0 mm 3 m/s 739 mm Hg 88%
23:00 +5°C° 0 mm 3 m/s 739 mm Hg 86%

Dopodomani, 22 Aprile, Giovedi

Tempo Temperatura Precipitazioni Vento Pressione Umidità
00:00 +5°C° 0 mm 4 m/s 739 mm Hg 84%
01:00 +4°C° 0 mm 4 m/s 740 mm Hg 82%
02:00 +3°C° 0 mm 4 m/s 740 mm Hg 81%
03:00 +1°C° 0 mm 4 m/s 740 mm Hg 79%
04:00 0°C° 0 mm 4 m/s 740 mm Hg 78%
05:00 0°C° 0 mm 4 m/s 740 mm Hg 75%
06:00 0°C° 0 mm 5 m/s 741 mm Hg 72%
07:00 +1°C° 0 mm 5 m/s 741 mm Hg 69%
08:00 +2°C° 0 mm 5 m/s 741 mm Hg 65%
09:00 +3°C° 0 mm 6 m/s 741 mm Hg 60%
10:00 +4°C° 0 mm 6 m/s 741 mm Hg 55%
11:00 +4°C° 0 mm 6 m/s 741 mm Hg 54%
12:00 +5°C° 0 mm 6 m/s 741 mm Hg 54%
13:00 +5°C° 0 mm 6 m/s 741 mm Hg 53%
14:00 +5°C° 0.2 mm 6 m/s 741 mm Hg 56%
15:00 +5°C° 0.2 mm 7 m/s 741 mm Hg 59%
16:00 +6°C° 0.2 mm 7 m/s 741 mm Hg 62%
17:00 +5°C° 0.3 mm 6 m/s 741 mm Hg 67%
18:00 +3°C° 0.3 mm 5 m/s 741 mm Hg 73%
19:00 +2°C° 0.3 mm 5 m/s 741 mm Hg 79%
20:00 +3°C° 0.1 mm 4 m/s 742 mm Hg 81%
21:00 +1°C° 0.1 mm 4 m/s 742 mm Hg 84%
22:00 +1°C° 0.1 mm 4 m/s 742 mm Hg 86%
23:00 0°C° 0.1 mm 4 m/s 742 mm Hg 88%

23 Aprile, Venerdi

Tempo Temperatura Precipitazioni Vento Pressione Umidità
00:00 0°C° 0.1 mm 4 m/s 743 mm Hg 89%
01:00 0°C° 0.1 mm 4 m/s 743 mm Hg 91%
02:00 -1°C° 0 mm 4 m/s 743 mm Hg 92%
03:00 -1°C° 0 mm 4 m/s 743 mm Hg 93%
04:00 -2°C° 0 mm 4 m/s 743 mm Hg 94%
05:00 -1°C° 0 mm 5 m/s 744 mm Hg 92%
06:00 -1°C° 0 mm 5 m/s 744 mm Hg 91%
07:00 0°C° 0 mm 5 m/s 744 mm Hg 89%
08:00 0°C° 0.1 mm 5 m/s 744 mm Hg 87%
09:00 +1°C° 0.1 mm 5 m/s 745 mm Hg 85%
10:00 +1°C° 0.1 mm 5 m/s 745 mm Hg 83%
11:00 +2°C° 0 mm 5 m/s 745 mm Hg 79%
12:00 +2°C° 0 mm 6 m/s 745 mm Hg 76%
13:00 +3°C° 0 mm 6 m/s 745 mm Hg 72%
14:00 +5°C° 0.1 mm 5 m/s 745 mm Hg 70%
15:00 +5°C° 0.1 mm 5 m/s 745 mm Hg 68%
16:00 +6°C° 0.1 mm 4 m/s 745 mm Hg 67%
17:00 +5°C° 0.1 mm 3 m/s 745 mm Hg 71%
18:00 +4°C° 0.1 mm 3 m/s 745 mm Hg 76%
19:00 +4°C° 0.1 mm 2 m/s 745 mm Hg 80%
20:00 +4°C° 0 mm 1 m/s 746 mm Hg 82%
21:00 +4°C° 0 mm 1 m/s 746 mm Hg 84%
22:00 +3°C° 0 mm 1 m/s 746 mm Hg 86%
23:00 +3°C° 0 mm 1 m/s 746 mm Hg 88%

24 Aprile, Sabato

Tempo Temperatura Precipitazioni Vento Pressione Umidità
00:00 +2°C° 0 mm 1 m/s 746 mm Hg 89%
01:00 +1°C° 0 mm 2 m/s 746 mm Hg 91%
02:00 +1°C° 0 mm 2 m/s 746 mm Hg 90%
03:00 +1°C° 0 mm 2 m/s 746 mm Hg 89%
04:00 +1°C° 0 mm 2 m/s 746 mm Hg 88%
05:00 +1°C° 0 mm 3 m/s 746 mm Hg 86%
06:00 +2°C° 0 mm 3 m/s 746 mm Hg 85%
07:00 +3°C° 0 mm 4 m/s 746 mm Hg 83%
08:00 +4°C° 0 mm 4 m/s 746 mm Hg 76%
09:00 +5°C° 0 mm 5 m/s 746 mm Hg 69%
10:00 +6°C° 0 mm 5 m/s 746 mm Hg 63%
11:00 +6°C° 0 mm 5 m/s 746 mm Hg 62%
12:00 +5°C° 0 mm 6 m/s 746 mm Hg 62%
13:00 +7°C° 0 mm 6 m/s 745 mm Hg 62%
14:00 +5°C° 0.1 mm 6 m/s 745 mm Hg 64%
15:00 +6°C° 0.1 mm 5 m/s 745 mm Hg 67%
16:00 +6°C° 0.1 mm 5 m/s 745 mm Hg 69%
17:00 +5°C° 0.1 mm 4 m/s 745 mm Hg 76%
18:00 +4°C° 0.1 mm 3 m/s 745 mm Hg 82%
19:00 +4°C° 0.1 mm 2 m/s 745 mm Hg 89%
20:00 +4°C° 0.1 mm 2 m/s 745 mm Hg 90%
21:00 +4°C° 0.1 mm 2 m/s 745 mm Hg 90%
22:00 +4°C° 0.1 mm 1 m/s 745 mm Hg 91%
23:00 +4°C° 0.1 mm 1 m/s 745 mm Hg 92%

25 Aprile, Domenica

Tempo Temperatura Precipitazioni Vento Pressione Umidità
00:00 +3°C° 0.1 mm 1 m/s 745 mm Hg 92%
01:00 +2°C° 0.1 mm 1 m/s 745 mm Hg 93%
02:00 +2°C° 0 mm 1 m/s 745 mm Hg 91%
03:00 +2°C° 0 mm 1 m/s 745 mm Hg 90%
04:00 +2°C° 0 mm 1 m/s 745 mm Hg 88%
05:00 +1°C° 0 mm 2 m/s 746 mm Hg 84%
06:00 0°C° 0 mm 3 m/s 746 mm Hg 79%
07:00 +1°C° 0 mm 3 m/s 746 mm Hg 75%
08:00 +1°C° 0.1 mm 4 m/s 746 mm Hg 68%
09:00 +4°C° 0.1 mm 4 m/s 746 mm Hg 60%
10:00 +5°C° 0.1 mm 5 m/s 746 mm Hg 53%
11:00 +6°C° 0.1 mm 5 m/s 746 mm Hg 49%
12:00 +7°C° 0.1 mm 5 m/s 746 mm Hg 44%
13:00 +7°C° 0.1 mm 5 m/s 746 mm Hg 40%
14:00 +7°C° 0 mm 5 m/s 746 mm Hg 41%
15:00 +7°C° 0 mm 5 m/s 745 mm Hg 41%
16:00 +7°C° 0 mm 6 m/s 745 mm Hg 41%
17:00 +6°C° 0 mm 5 m/s 745 mm Hg 47%
18:00 +5°C° 0 mm 4 m/s 745 mm Hg 54%
19:00 +4°C° 0 mm 4 m/s 745 mm Hg 60%
20:00 +2°C° 0 mm 3 m/s 745 mm Hg 67%
21:00 +2°C° 0 mm 2 m/s 746 mm Hg 75%
22:00 +1°C° 0 mm 2 m/s 746 mm Hg 82%
23:00 -1°C° 0 mm 2 m/s 745 mm Hg 83%
Mostrare altro

Abbiamo bisogno del tuo consenso

Meteoprog e i nostri fornitori di servizi possono memorizzare e accedere a dati personali come cookie, identificatori di dispositivi o altre tecnologie simili sul tuo dispositivo e possono elaborare tali dati per personalizzare i contenuti e gli annunci, nonché fornire funzionalità dei social media e analizzarne il traffico.

  • Archiviare e/o accedere alle informazioni sul tuo dispositivo

    Cookie, identificatori di dispositivi o altre informazioni possono essere memorizzati o resi accessibili sul tuo dispositivo per le finalità sopra indicate.

  • Annunci e contenuti personalizzati, misurazione di annunci e contenuti, approfondimenti sul pubblico e sviluppo di prodotti

    Gli annunci e i contenuti possono essere personalizzati in base a un profilo. È possibile aggiungere più dati per personalizzare meglio annunci e contenuti. È possibile misurare il rendimento degli annunci e dei contenuti. È possibile ricavare informazioni sul pubblico che ha visto gli annunci e i contenuti. Tali dati possono essere utilizzati per sviluppare o migliorare l'esperienza, i sistemi e il software dell'utente.

Cliccando su “Accetto”, acconsenti all'uso di cookie, identificatori di dispositivo, web beacon o altre tecnologie simili. Puoi modificare le impostazioni nel browser del tuo dispositivo.

Per determinati scopi, è possibile fare affidamento su interessi legali, piuttosto che sul consenso. Puoi approfondire questo argomento consultando la nostra Informativa sulla privacy e sui cookie.